| time (UTC) | temp C | wind direction | speed KPH | gust KPH | rain 1hr cm | rain 24hr cm | rain mn cm | humidity % | barometer mb |
| 20260831134816 | 26 | 211 | 0.0 | 4.8 | 0.00 | 0.00 | 0.00 | 82 | 1015.5 |
| 20260831134316 | 26 | 211 | 0.0 | 4.8 | 0.00 | 0.00 | 0.00 | 82 | 1015.5 |
| 20260831133816 | 26 | 199 | 0.0 | 1.6 | 0.00 | 0.00 | 0.00 | 83 | 1015.5 |
| 20260831133540 | 26 | 213 | 0.0 | 3.2 | 0.00 | 0.00 | 0.00 | 84 | 1015.4 |
| 20260831132816 | 26 | 213 | 0.0 | 3.2 | 0.00 | 0.00 | 0.00 | 83 | 1015.5 |
| 20260831132315 | 26 | 150 | 0.0 | 3.2 | 0.00 | 0.00 | 0.00 | 83 | 1015.5 |
| 20260831131816 | 26 | 122 | 0.0 | 3.2 | 0.00 | 0.00 | 0.00 | 84 | 1015.5 |
| 20260831131545 | 25 | 167 | 0.0 | 1.6 | 0.00 | 0.00 | 0.00 | 84 | 1015.3 |
| 20260831130812 | 25 | 163 | 0.0 | 1.6 | 0.00 | 0.00 | 0.00 | 84 | 1015.3 |
| 20260831130311 | 25 | 174 | 0.0 | 8.0 | 0.00 | 0.00 | 0.00 | 85 | 1015.3 |
| 20260831130031 | 25 | 177 | 0.0 | 8.0 | 0.00 | 0.00 | 0.00 | 86 | 1015.4 |
| 20260831125312 | 25 | 118 | 0.0 | 0.0 | 0.00 | 0.00 | 0.00 | 87 | 1015.4 |
| 20260831124812 | 25 | 207 | 0.0 | 0.0 | 0.00 | 0.00 | 0.00 | 88 | 1015.4 |
| 20260831124311 | 24 | 147 | 0.0 | 0.0 | 0.00 | 0.00 | 0.00 | 88 | 1015.4 |
| 20260831123813 | 24 | 147 | 0.0 | 0.0 | 0.00 | 0.00 | 0.00 | 88 | 1015.5 |
| 20260831123537 | 24 | 148 | 0.0 | 0.0 | 0.00 | 0.00 | 0.00 | 88 | 1015.6 |
| 20260831122813 | 24 | 148 | 0.0 | 0.0 | 0.00 | 0.00 | 0.00 | 89 | 1015.5 |
| 20260831122307 | 23 | 77 | 0.0 | 0.0 | 0.00 | 0.00 | 0.00 | 89 | 1015.4 |
| 20260831121808 | 23 | 30 | 0.0 | 0.0 | 0.00 | 0.00 | 0.00 | 90 | 1015.4 |
| 20260831121309 | 23 | 172 | 0.0 | 0.0 | 0.00 | 0.00 | 0.00 | 90 | 1015.3 |
| 20260831120807 | 23 | 209 | 0.0 | 0.0 | 0.00 | 0.00 | 0.00 | 91 | 1015.1 |
| 20260831120309 | 23 | 191 | 0.0 | 0.0 | 0.00 | 0.00 | 0.00 | 91 | 1015.1 |
| 20260831115808 | 23 | 193 | 0.0 | 0.0 | 0.00 | 0.00 | 0.00 | 92 | 1015.2 |
| 20260831115307 | 23 | 193 | 0.0 | 0.0 | 0.00 | 0.00 | 0.00 | 92 | 1015.2 |
| 20260831115030 | 22 | 210 | 0.0 | 0.0 | 0.00 | 0.00 | 0.00 | 92 | 1015.1 |
| 20260831114309 | 22 | 210 | 0.0 | 0.0 | 0.00 | 0.00 | 0.00 | 92 | 1015.1 |
| 20260831113805 | 22 | 210 | 0.0 | 0.0 | 0.00 | 0.00 | 0.00 | 92 | 1015.1 |
| 20260831113304 | 22 | 210 | 0.0 | 0.0 | 0.00 | 0.00 | 0.00 | 92 | 1015.0 |
| 20260831112804 | 22 | 210 | 0.0 | 0.0 | 0.00 | 0.00 | 0.00 | 92 | 1015.0 |
| 20260831112307 | 22 | 210 | 0.0 | 0.0 | 0.00 | 0.00 | 0.00 | 91 | 1014.8 |
| 20260831111804 | 22 | 210 | 0.0 | 0.0 | 0.00 | 0.00 | 0.00 | 91 | 1014.8 |
| 20260831111743 | 22 | 210 | 0.0 | 0.0 | 0.00 | 0.00 | 0.00 | 91 | 1014.8 |
| 20260831111024 | 22 | 210 | 0.0 | 0.0 | 0.00 | 0.00 | 0.00 | 91 | 1014.8 |
| 20260831110255 | 22 | 210 | 0.0 | 0.0 | 0.00 | 0.00 | 0.00 | 91 | 1014.7 |
| 20260831110022 | 22 | 210 | 0.0 | 0.0 | 0.00 | 0.00 | 0.00 | 90 | 1014.7 |
| 20260831105257 | 22 | 210 | 0.0 | 0.0 | 0.00 | 0.00 | 0.00 | 90 | 1014.7 |
| 20260831104753 | 22 | 210 | 0.0 | 0.0 | 0.00 | 0.00 | 0.00 | 90 | 1014.7 |
| 20260831104251 | 22 | 210 | 0.0 | 0.0 | 0.00 | 0.00 | 0.00 | 90 | 1014.7 |
| 20260831103751 | 22 | 210 | 0.0 | 0.0 | 0.00 | 0.00 | 0.00 | 90 | 1014.7 |
| 20260831103248 | 23 | 210 | 0.0 | 0.0 | 0.00 | 0.00 | 0.00 | 90 | 1014.7 |
| 20260831102747 | 23 | 210 | 0.0 | 0.0 | 0.00 | 0.00 | 0.00 | 90 | 1014.7 |
| 20260831102247 | 23 | 210 | 0.0 | 0.0 | 0.00 | 0.00 | 0.00 | 89 | 1014.7 |
| 20260831101746 | 23 | 210 | 0.0 | 0.0 | 0.00 | 0.00 | 0.00 | 89 | 1014.6 |
| 20260831101512 | 23 | 210 | 0.0 | 0.0 | 0.00 | 0.00 | 0.00 | 89 | 1014.5 |
| 20260831100743 | 23 | 210 | 0.0 | 0.0 | 0.00 | 0.00 | 0.00 | 89 | 1014.4 |
| 20260831100458 | 23 | 210 | 0.0 | 0.0 | 0.00 | 0.00 | 0.00 | 89 | 1014.3 |
| 20260831095731 | 23 | 210 | 0.0 | 0.0 | 0.00 | 0.00 | 0.00 | 89 | 1014.4 |
| 20260831095452 | 23 | 210 | 0.0 | 0.0 | 0.00 | 0.00 | 0.00 | 88 | 1014.4 |
| 20260831094718 | 23 | 210 | 0.0 | 0.0 | 0.00 | 0.00 | 0.00 | 88 | 1014.4 |
| 20260831094434 | 23 | 210 | 0.0 | 0.0 | 0.00 | 0.00 | 0.00 | 88 | 1014.4 |
| 20260831093707 | 23 | 210 | 0.0 | 0.0 | 0.00 | 0.00 | 0.00 | 88 | 1014.4 |
| 20260831093201 | 23 | 210 | 0.0 | 0.0 | 0.00 | 0.00 | 0.00 | 87 | 1014.4 |
| 20260831092655 | 23 | 210 | 0.0 | 3.2 | 0.00 | 0.00 | 0.00 | 87 | 1014.4 |
| 20260831092148 | 23 | 210 | 0.0 | 3.2 | 0.00 | 0.00 | 0.00 | 88 | 1014.4 |
| 20260831091643 | 23 | 198 | 0.0 | 0.0 | 0.00 | 0.00 | 0.00 | 88 | 1014.4 |
| 20260831091137 | 23 | 198 | 0.0 | 0.0 | 0.00 | 0.00 | 0.00 | 88 | 1014.4 |
| 20260831090630 | 23 | 198 | 0.0 | 0.0 | 0.00 | 0.00 | 0.00 | 88 | 1014.5 |
| 20260831090125 | 23 | 198 | 0.0 | 0.0 | 0.00 | 0.00 | 0.00 | 88 | 1014.4 |
| 20260831085619 | 23 | 198 | 0.0 | 0.0 | 0.00 | 0.00 | 0.00 | 87 | 1014.4 |
| 20260831085113 | 23 | 198 | 0.0 | 0.0 | 0.00 | 0.00 | 0.00 | 87 | 1014.4 |
| 20260831084928 | 23 | 198 | 0.0 | 0.0 | 0.00 | 0.00 | 0.00 | 87 | 1014.4 |
| 20260831084836 | 24 | 198 | 0.0 | 0.0 | 0.00 | 0.00 | 0.00 | 87 | 1014.4 |
| 20260831083555 | 24 | 198 | 0.0 | 0.0 | 0.00 | 0.00 | 0.00 | 87 | 1014.4 |
| 20260831083049 | 24 | 198 | 0.0 | 0.0 | 0.00 | 0.00 | 0.00 | 86 | 1014.4 |
| 20260831082543 | 24 | 198 | 0.0 | 0.0 | 0.00 | 0.00 | 0.00 | 86 | 1014.4 |
| 20260831082037 | 24 | 198 | 0.0 | 0.0 | 0.00 | 0.00 | 0.00 | 86 | 1014.4 |
| 20260831081531 | 24 | 198 | 0.0 | 0.0 | 0.00 | 0.00 | 0.00 | 86 | 1014.4 |
| 20260831081025 | 24 | 198 | 0.0 | 0.0 | 0.00 | 0.00 | 0.00 | 85 | 1014.4 |
| 20260831080519 | 24 | 198 | 0.0 | 0.0 | 0.00 | 0.00 | 0.00 | 85 | 1014.4 |
| 20260831080241 | 24 | 198 | 0.0 | 0.0 | 0.00 | 0.00 | 0.00 | 85 | 1014.3 |
| 20260831075507 | 24 | 198 | 0.0 | 0.0 | 0.00 | 0.00 | 0.00 | 84 | 1014.3 |
| 20260831075000 | 24 | 198 | 0.0 | 0.0 | 0.00 | 0.00 | 0.00 | 84 | 1014.3 |
| 20260831074454 | 24 | 198 | 0.0 | 0.0 | 0.00 | 0.00 | 0.00 | 84 | 1014.3 |
| 20260831073949 | 24 | 198 | 0.0 | 0.0 | 0.00 | 0.00 | 0.00 | 84 | 1014.3 |
| 20260831073708 | 25 | 198 | 0.0 | 0.0 | 0.00 | 0.00 | 0.00 | 84 | 1014.3 |
| 20260831072937 | 25 | 198 | 0.0 | 1.6 | 0.00 | 0.00 | 0.00 | 83 | 1014.4 |
| 20260831072431 | 25 | 198 | 0.0 | 1.6 | 0.00 | 0.00 | 0.00 | 83 | 1014.4 |
| 20260831071924 | 25 | 146 | 0.0 | 1.6 | 0.00 | 0.00 | 0.00 | 83 | 1014.3 |
| 20260831071418 | 25 | 146 | 0.0 | 1.6 | 0.00 | 0.00 | 0.00 | 83 | 1014.4 |
| 20260831070913 | 25 | 203 | 0.0 | 1.6 | 0.00 | 0.00 | 0.00 | 82 | 1014.5 |
| 20260831070407 | 25 | 202 | 0.0 | 4.8 | 0.00 | 0.00 | 0.00 | 82 | 1014.6 |
| 20260831065900 | 25 | 322 | 0.0 | 4.8 | 0.00 | 0.00 | 0.00 | 82 | 1014.6 |
| 20260831065354 | 25 | 191 | 0.0 | 6.4 | 0.00 | 0.00 | 0.00 | 82 | 1014.5 |
| 20260831064852 | 25 | 205 | 0.0 | 6.4 | 0.00 | 0.00 | 0.00 | 83 | 1014.5 |
| 20260831064342 | 25 | 217 | 0.0 | 1.6 | 0.00 | 0.00 | 0.00 | 83 | 1014.5 |
| 20260831063837 | 25 | 199 | 0.0 | 3.2 | 0.00 | 0.00 | 0.00 | 84 | 1014.5 |
| 20260831063331 | 24 | 169 | 0.0 | 3.2 | 0.00 | 0.00 | 0.00 | 84 | 1014.5 |
| 20260831063050 | 24 | 149 | 0.0 | 4.8 | 0.00 | 0.00 | 0.00 | 85 | 1014.6 |
| 20260831062539 | 24 | 247 | 0.0 | 4.8 | 0.00 | 0.00 | 0.00 | 85 | 1014.6 |
| 20260831061812 | 24 | 208 | 0.0 | 1.6 | 0.00 | 0.00 | 0.00 | 86 | 1014.6 |
| 20260831061530 | 24 | 208 | 0.0 | 1.6 | 0.00 | 0.00 | 0.00 | 86 | 1014.5 |
| 20260831061041 | 24 | 208 | 0.0 | 1.6 | 0.00 | 0.00 | 0.00 | 87 | 1014.7 |
| 20260831060310 | 23 | 13 | 0.0 | 1.6 | 0.00 | 0.00 | 0.00 | 87 | 1014.8 |
| 20260831055808 | 24 | 13 | 0.0 | 0.0 | 0.00 | 0.00 | 0.00 | 87 | 1014.8 |
| 20260831055307 | 24 | 13 | 0.0 | 0.0 | 0.00 | 0.00 | 0.00 | 87 | 1014.8 |
| 20260831054807 | 24 | 13 | 0.0 | 0.0 | 0.00 | 0.00 | 0.00 | 86 | 1014.8 |
| 20260831054308 | 24 | 13 | 0.0 | 0.0 | 0.00 | 0.00 | 0.00 | 86 | 1014.9 |
| 20260831053806 | 24 | 13 | 0.0 | 0.0 | 0.00 | 0.00 | 0.00 | 86 | 1014.9 |
| 20260831053307 | 24 | 13 | 0.0 | 0.0 | 0.00 | 0.00 | 0.00 | 85 | 1014.9 |
| 20260831052802 | 25 | 13 | 0.0 | 0.0 | 0.00 | 0.00 | 0.00 | 85 | 1015.1 |
| 20260831052306 | 25 | 13 | 0.0 | 0.0 | 0.00 | 0.00 | 0.00 | 85 | 1015.0 |
| 20260831051257 | 25 | 13 | 0.0 | 0.0 | 0.00 | 0.00 | 0.00 | 84 | 1015.2 |
| 20260831051016 | 25 | 13 | 0.0 | 0.0 | 0.00 | 0.00 | 0.00 | 84 | 1015.2 |
| 20260831050254 | 25 | 13 | 0.0 | 0.0 | 0.00 | 0.00 | 0.00 | 83 | 1015.2 |
| 20260831045752 | 25 | 13 | 0.0 | 0.0 | 0.00 | 0.00 | 0.00 | 83 | 1015.2 |
| 20260831045250 | 25 | 13 | 0.0 | 0.0 | 0.00 | 0.00 | 0.00 | 83 | 1015.2 |
| 20260831044749 | 25 | 13 | 0.0 | 0.0 | 0.00 | 0.00 | 0.00 | 83 | 1015.2 |
| 20260831044246 | 25 | 13 | 0.0 | 0.0 | 0.00 | 0.00 | 0.00 | 83 | 1015.2 |
| 20260831044226 | 25 | 13 | 0.0 | 0.0 | 0.00 | 0.00 | 0.00 | 83 | 1015.2 |
| 20260831043511 | 25 | 13 | 0.0 | 0.0 | 0.00 | 0.00 | 0.00 | 83 | 1015.2 |
| 20260831042738 | 25 | 13 | 0.0 | 0.0 | 0.00 | 0.00 | 0.00 | 83 | 1015.3 |
| 20260831042232 | 25 | 13 | 0.0 | 0.0 | 0.00 | 0.00 | 0.00 | 83 | 1015.3 |
| 20260831041726 | 25 | 13 | 0.0 | 0.0 | 0.00 | 0.00 | 0.00 | 83 | 1015.3 |
| 20260831041220 | 25 | 351 | 0.0 | 0.0 | 0.00 | 0.00 | 0.00 | 83 | 1015.3 |
| 20260831040713 | 25 | 275 | 0.0 | 0.0 | 0.00 | 0.00 | 0.00 | 83 | 1015.3 |
| 20260831040208 | 25 | 275 | 0.0 | 0.0 | 0.00 | 0.00 | 0.00 | 84 | 1015.3 |
| 20260831035924 | 25 | 274 | 0.0 | 0.0 | 0.00 | 0.00 | 0.00 | 84 | 1015.3 |
| 20260831035156 | 25 | 275 | 0.0 | 0.0 | 0.00 | 0.00 | 0.00 | 84 | 1015.3 |
| 20260831034650 | 25 | 274 | 0.0 | 0.0 | 0.00 | 0.00 | 0.00 | 84 | 1015.3 |
| 20260831034144 | 25 | 274 | 0.0 | 0.0 | 0.00 | 0.00 | 0.00 | 84 | 1015.4 |
| 20260831033638 | 25 | 274 | 0.0 | 0.0 | 0.00 | 0.00 | 0.00 | 84 | 1015.4 |
| 20260831033132 | 25 | 275 | 0.0 | 0.0 | 0.00 | 0.00 | 0.00 | 84 | 1015.5 |
| 20260831032626 | 25 | 275 | 0.0 | 0.0 | 0.00 | 0.00 | 0.00 | 84 | 1015.4 |
| 20260831032347 | 25 | 274 | 0.0 | 0.0 | 0.00 | 0.00 | 0.00 | 85 | 1015.5 |
| 20260831032106 | 25 | 275 | 0.0 | 0.0 | 0.00 | 0.00 | 0.00 | 86 | 1015.5 |
| 20260831031109 | 25 | 274 | 0.0 | 0.0 | 0.00 | 0.00 | 0.00 | 86 | 1015.5 |
| 20260831030602 | 25 | 274 | 0.0 | 0.0 | 0.00 | 0.00 | 0.00 | 86 | 1015.5 |
| 20260831030056 | 25 | 274 | 0.0 | 0.0 | 0.00 | 0.00 | 0.00 | 86 | 1015.5 |
| 20260831025550 | 25 | 274 | 0.0 | 1.6 | 0.00 | 0.00 | 0.00 | 86 | 1015.6 |
| 20260831025045 | 25 | 274 | 0.0 | 1.6 | 0.00 | 0.00 | 0.00 | 86 | 1015.5 |
| 20260831024538 | 25 | 289 | 0.0 | 0.0 | 0.00 | 0.00 | 0.00 | 86 | 1015.6 |
| 20260831024032 | 25 | 290 | 0.0 | 0.0 | 0.00 | 0.00 | 0.00 | 86 | 1015.5 |
| 20260831023527 | 25 | 290 | 0.0 | 0.0 | 0.00 | 0.00 | 0.00 | 86 | 1015.5 |
| 20260831023245 | 25 | 290 | 0.0 | 0.0 | 0.00 | 0.00 | 0.00 | 86 | 1015.5 |
| 20260831022515 | 25 | 290 | 0.0 | 0.0 | 0.00 | 0.00 | 0.00 | 85 | 1015.6 |
| 20260831022008 | 25 | 290 | 0.0 | 0.0 | 0.00 | 0.00 | 0.00 | 85 | 1015.6 |
| 20260831021502 | 25 | 290 | 0.0 | 0.0 | 0.00 | 0.00 | 0.00 | 85 | 1015.5 |
| 20260831020956 | 25 | 290 | 0.0 | 0.0 | 0.00 | 0.00 | 0.00 | 84 | 1015.6 |
| 20260831020451 | 25 | 290 | 0.0 | 0.0 | 0.00 | 0.00 | 0.00 | 84 | 1015.5 |
| 20260831015944 | 25 | 289 | 0.0 | 0.0 | 0.00 | 0.00 | 0.00 | 84 | 1015.6 |
| 20260831015438 | 25 | 290 | 0.0 | 0.0 | 0.00 | 0.00 | 0.00 | 84 | 1015.5 |
| 20260831015011 | 25 | 290 | 0.0 | 0.0 | 0.00 | 0.00 | 0.00 | 83 | 1015.6 |
| 20260831014650 | 25 | 290 | 0.0 | 0.0 | 0.00 | 0.00 | 0.00 | 83 | 1015.5 |
| 20260831014146 | 25 | 290 | 0.0 | 0.0 | 0.00 | 0.00 | 0.00 | 82 | 1015.6 |
| 20260831013414 | 25 | 290 | 0.0 | 0.0 | 0.00 | 0.00 | 0.00 | 82 | 1015.6 |
| 20260831013130 | 25 | 289 | 0.0 | 0.0 | 0.00 | 0.00 | 0.00 | 82 | 1015.6 |
| 20260831012402 | 25 | 290 | 0.0 | 0.0 | 0.00 | 0.00 | 0.00 | 81 | 1015.6 |
| 20260831011856 | 25 | 289 | 0.0 | 0.0 | 0.00 | 0.00 | 0.00 | 81 | 1015.7 |
| 20260831011350 | 25 | 289 | 0.0 | 0.0 | 0.00 | 0.00 | 0.00 | 81 | 1015.7 |
| 20260831010844 | 25 | 289 | 0.0 | 0.0 | 0.00 | 0.00 | 0.00 | 80 | 1015.7 |
| 20260831010338 | 25 | 290 | 0.0 | 0.0 | 0.00 | 0.00 | 0.00 | 80 | 1015.6 |
| 20260831005833 | 26 | 290 | 0.0 | 0.0 | 0.00 | 0.00 | 0.00 | 80 | 1015.5 |
| 20260831005326 | 26 | 290 | 0.0 | 0.0 | 0.00 | 0.00 | 0.00 | 79 | 1015.4 |
| 20260831004820 | 26 | 290 | 0.0 | 0.0 | 0.00 | 0.00 | 0.00 | 78 | 1015.3 |
| 20260831004314 | 26 | 290 | 0.0 | 0.0 | 0.00 | 0.00 | 0.00 | 78 | 1015.2 |
| 20260831004033 | 26 | 290 | 0.0 | 0.0 | 0.00 | 0.00 | 0.00 | 77 | 1015.1 |
| 20260831003301 | 26 | 290 | 0.0 | 0.0 | 0.00 | 0.00 | 0.00 | 77 | 1014.9 |
| 20260831002756 | 26 | 290 | 0.0 | 0.0 | 0.00 | 0.00 | 0.00 | 77 | 1014.9 |
| 20260831002250 | 26 | 290 | 0.0 | 0.0 | 0.00 | 0.00 | 0.00 | 76 | 1014.8 |
| 20260831002236 | 26 | 289 | 0.0 | 0.0 | 0.00 | 0.00 | 0.00 | 75 | 1014.8 |
| 20260831001502 | 27 | 290 | 0.0 | 0.0 | 0.00 | 0.00 | 0.00 | 74 | 1014.7 |
| 20260831000957 | 27 | 289 | 0.0 | 0.0 | 0.00 | 0.00 | 0.00 | 74 | 1014.7 |
| 20260831000447 | 27 | 290 | 0.0 | 0.0 | 0.00 | 0.00 | 0.00 | 73 | 1014.7 |
| 20260830235723 | 27 | 289 | 0.0 | 0.0 | 0.00 | 0.00 | 0.00 | 72 | 1014.8 |
| 20260830235223 | 27 | 289 | 0.0 | 0.0 | 0.00 | 0.00 | 0.00 | 72 | 1014.8 |
| 20260830234723 | 28 | 289 | 0.0 | 0.0 | 0.00 | 0.00 | 0.00 | 71 | 1014.8 |
| 20260830234224 | 28 | 289 | 0.0 | 0.0 | 0.00 | 0.00 | 0.00 | 70 | 1014.8 |
| 20260830233723 | 28 | 290 | 0.0 | 0.0 | 0.00 | 0.00 | 0.00 | 69 | 1014.8 |
| 20260830233223 | 29 | 289 | 0.0 | 0.0 | 0.00 | 0.00 | 0.00 | 67 | 1014.8 |
| 20260830232722 | 29 | 289 | 0.0 | 1.6 | 0.00 | 0.00 | 0.00 | 67 | 1014.9 |
| 20260830232220 | 29 | 289 | 0.0 | 1.6 | 0.00 | 0.00 | 0.00 | 65 | 1014.9 |
| 20260830231718 | 30 | 253 | 0.0 | 0.0 | 0.00 | 0.00 | 0.00 | 65 | 1014.9 |
| 20260830231216 | 30 | 253 | 0.0 | 0.0 | 0.00 | 0.00 | 0.00 | 65 | 1014.9 |
| 20260830230715 | 30 | 253 | 0.0 | 0.0 | 0.00 | 0.00 | 0.00 | 65 | 1014.9 |
| 20260830230216 | 30 | 253 | 0.0 | 0.0 | 0.00 | 0.00 | 0.00 | 65 | 1014.8 |
| 20260830225712 | 30 | 254 | 0.0 | 1.6 | 0.00 | 0.00 | 0.00 | 64 | 1014.7 |
| 20260830225434 | 30 | 253 | 0.0 | 1.6 | 0.00 | 0.00 | 0.00 | 62 | 1014.8 |
| 20260830224714 | 31 | 188 | 0.0 | 0.0 | 0.00 | 0.00 | 0.00 | 62 | 1014.8 |
| 20260830224213 | 31 | 172 | 0.0 | 0.0 | 0.00 | 0.00 | 0.00 | 61 | 1014.7 |
| 20260830223713 | 31 | 172 | 0.0 | 0.0 | 0.00 | 0.00 | 0.00 | 61 | 1014.7 |
| 20260830223211 | 31 | 172 | 0.0 | 1.6 | 0.00 | 0.00 | 0.00 | 61 | 1014.8 |
| 20260830222712 | 31 | 172 | 0.0 | 1.6 | 0.00 | 0.00 | 0.00 | 61 | 1014.7 |
| 20260830222209 | 31 | 140 | 0.0 | 3.2 | 0.00 | 0.00 | 0.00 | 60 | 1014.8 |
| 20260830221710 | 32 | 122 | 0.0 | 3.2 | 0.00 | 0.00 | 0.00 | 59 | 1014.7 |
| 20260830221210 | 32 | 141 | 0.0 | 0.0 | 0.00 | 0.00 | 0.00 | 59 | 1014.7 |
| 20260830220936 | 32 | 141 | 0.0 | 0.0 | 0.00 | 0.00 | 0.00 | 59 | 1014.8 |
| 20260830220209 | 33 | 34 | 0.0 | 0.0 | 0.00 | 0.00 | 0.00 | 59 | 1014.8 |
| 20260830215931 | 33 | 63 | 0.0 | 0.0 | 0.00 | 0.00 | 0.00 | 57 | 1014.8 |
| 20260830215210 | 33 | 199 | 0.0 | 1.6 | 0.00 | 0.00 | 0.00 | 56 | 1014.7 |
| 20260830214710 | 33 | 86 | 0.0 | 1.6 | 0.00 | 0.00 | 0.00 | 55 | 1014.7 |
| 20260830214208 | 34 | 349 | 0.0 | 1.6 | 0.00 | 0.00 | 0.00 | 54 | 1014.7 |
| 20260830213710 | 34 | 136 | 0.0 | 1.6 | 0.00 | 0.00 | 0.00 | 53 | 1014.6 |
| 20260830213209 | 35 | 119 | 0.0 | 1.6 | 0.00 | 0.00 | 0.00 | 53 | 1014.6 |
| 20260830212935 | 35 | 118 | 0.0 | 1.6 | 0.00 | 0.00 | 0.00 | 52 | 1014.5 |
| 20260830212209 | 35 | 99 | 0.0 | 3.2 | 0.00 | 0.00 | 0.00 | 52 | 1014.6 |
| 20260830211710 | 35 | 279 | 0.0 | 3.2 | 0.00 | 0.00 | 0.00 | 52 | 1014.5 |
| 20260830211208 | 35 | 236 | 0.0 | 1.6 | 0.00 | 0.00 | 0.00 | 53 | 1014.5 |
| 20260830210708 | 35 | 215 | 0.0 | 3.2 | 0.00 | 0.00 | 0.00 | 52 | 1014.5 |
| 20260830210430 | 35 | 95 | 0.0 | 6.4 | 0.00 | 0.00 | 0.00 | 52 | 1014.5 |
| 20260830205708 | 35 | 18 | 0.0 | 6.4 | 0.00 | 0.00 | 0.00 | 53 | 1014.5 |
| 20260830205210 | 35 | 39 | 0.0 | 3.2 | 0.00 | 0.00 | 0.00 | 54 | 1014.5 |
| 20260830204710 | 34 | 221 | 0.0 | 3.2 | 0.00 | 0.00 | 0.00 | 54 | 1014.7 |
| 20260830204210 | 34 | 153 | 1.6 | 3.2 | 0.00 | 0.00 | 0.00 | 53 | 1014.6 |
| 20260830203706 | 34 | 46 | 1.6 | 6.4 | 0.00 | 0.00 | 0.00 | 53 | 1014.7 |
| 20260830203208 | 34 | 184 | 1.6 | 6.4 | 0.00 | 0.00 | 0.00 | 53 | 1014.8 |
| 20260830202707 | 35 | 94 | 0.0 | 3.2 | 0.00 | 0.00 | 0.00 | 54 | 1014.8 |
| 20260830202206 | 35 | 100 | 0.0 | 1.6 | 0.00 | 0.00 | 0.00 | 55 | 1014.8 |
| 20260830201922 | 35 | 332 | 0.0 | 1.6 | 0.00 | 0.00 | 0.00 | 53 | 1015.0 |
| 20260830201208 | 35 | 321 | 0.0 | 3.2 | 0.00 | 0.00 | 0.00 | 52 | 1015.0 |
| 20260830200702 | 34 | 179 | 0.0 | 3.2 | 0.00 | 0.00 | 0.00 | 53 | 1015.0 |
| 20260830200155 | 34 | 205 | 0.0 | 3.2 | 0.00 | 0.00 | 0.00 | 55 | 1015.1 |
| 20260830195916 | 34 | 96 | 0.0 | 6.4 | 0.00 | 0.00 | 0.00 | 55 | 1015.2 |
| 20260830195143 | 34 | 182 | 0.0 | 6.4 | 0.00 | 0.00 | 0.00 | 56 | 1015.3 |
| 20260830194638 | 34 | 161 | 0.0 | 4.8 | 0.00 | 0.00 | 0.00 | 56 | 1015.4 |
| 20260830194132 | 34 | 91 | 0.0 | 4.8 | 0.00 | 0.00 | 0.00 | 55 | 1015.4 |
| 20260830193847 | 34 | 210 | 0.0 | 3.2 | 0.00 | 0.00 | 0.00 | 55 | 1015.6 |
| 20260830193120 | 33 | 201 | 1.6 | 4.8 | 0.00 | 0.00 | 0.00 | 57 | 1015.7 |
| 20260830192613 | 33 | 179 | 0.0 | 4.8 | 0.00 | 0.00 | 0.00 | 57 | 1015.9 |
| 20260830192108 | 33 | 92 | 0.0 | 4.8 | 0.00 | 0.00 | 0.00 | 56 | 1015.9 |
| 20260830191826 | 34 | 91 | 0.0 | 4.8 | 0.00 | 0.00 | 0.00 | 57 | 1016.0 |
| 20260830191056 | 34 | 183 | 0.0 | 3.2 | 0.00 | 0.00 | 0.00 | 57 | 1016.0 |
| 20260830190814 | 33 | 108 | 0.0 | 1.6 | 0.00 | 0.00 | 0.00 | 58 | 1016.1 |
| 20260830190044 | 33 | 217 | 0.0 | 6.4 | 0.00 | 0.00 | 0.00 | 59 | 1016.1 |
| 20260830185757 | 32 | 143 | 0.0 | 6.4 | 0.00 | 0.00 | 0.00 | 59 | 1016.3 |
| 20260830185251 | 32 | 72 | 0.0 | 4.8 | 0.00 | 0.00 | 0.00 | 60 | 1016.3 |
| 20260830184525 | 33 | 95 | 1.6 | 8.0 | 0.00 | 0.00 | 0.00 | 57 | 1016.3 |
| 20260830184019 | 33 | 148 | 0.0 | 8.0 | 0.00 | 0.00 | 0.00 | 58 | 1016.4 |
| 20260830183513 | 33 | 69 | 0.0 | 6.4 | 0.00 | 0.00 | 0.00 | 59 | 1016.5 |
| 20260830183008 | 33 | 32 | 1.6 | 6.4 | 0.00 | 0.00 | 0.00 | 58 | 1016.6 |
| 20260830182722 | 33 | 137 | 0.0 | 4.8 | 0.00 | 0.00 | 0.00 | 59 | 1016.7 |
| 20260830181956 | 33 | 124 | 0.0 | 4.8 | 0.00 | 0.00 | 0.00 | 60 | 1016.9 |
| 20260830181450 | 32 | 252 | 0.0 | 3.2 | 0.00 | 0.00 | 0.00 | 62 | 1016.8 |
| 20260830180943 | 32 | 113 | 0.0 | 3.2 | 0.00 | 0.00 | 0.00 | 61 | 1017.0 |
| 20260830180438 | 32 | 102 | 1.6 | 6.4 | 0.00 | 0.00 | 0.00 | 61 | 1017.2 |
| 20260830180157 | 32 | 167 | 0.0 | 6.4 | 0.00 | 0.00 | 0.00 | 61 | 1017.2 |
| 20260830175426 | 32 | 154 | 0.0 | 4.8 | 0.00 | 0.00 | 0.00 | 62 | 1017.2 |
| 20260830175139 | 32 | 116 | 0.0 | 4.8 | 0.00 | 0.00 | 0.00 | 63 | 1017.3 |
| 20260830174900 | 31 | 173 | 0.0 | 4.8 | 0.00 | 0.00 | 0.00 | 65 | 1017.2 |
| 20260830173908 | 31 | 68 | 1.6 | 6.4 | 0.00 | 0.00 | 0.00 | 65 | 1017.3 |
| 20260830173401 | 31 | 53 | 1.6 | 6.4 | 0.00 | 0.00 | 0.00 | 62 | 1017.4 |
| 20260830172856 | 32 | 51 | 0.0 | 3.2 | 0.00 | 0.00 | 0.00 | 62 | 1017.4 |
| 20260830172350 | 32 | 274 | 0.0 | 1.6 | 0.00 | 0.00 | 0.00 | 63 | 1017.4 |
| 20260830171844 | 31 | 253 | 0.0 | 1.6 | 0.00 | 0.00 | 0.00 | 62 | 1017.5 |
| 20260830171337 | 31 | 117 | 0.0 | 1.6 | 0.00 | 0.00 | 0.00 | 65 | 1017.6 |
| 20260830170832 | 31 | 38 | 0.0 | 1.6 | 0.00 | 0.00 | 0.00 | 66 | 1017.6 |
| 20260830170545 | 31 | 89 | 0.0 | 1.6 | 0.00 | 0.00 | 0.00 | 65 | 1017.7 |
| 20260830165820 | 31 | 338 | 0.0 | 4.8 | 0.00 | 0.00 | 0.00 | 65 | 1017.7 |
| 20260830165313 | 30 | 11 | 0.0 | 4.8 | 0.00 | 0.00 | 0.00 | 65 | 1017.8 |
| 20260830164808 | 30 | 225 | 1.6 | 4.8 | 0.00 | 0.00 | 0.00 | 66 | 1017.7 |
| 20260830164521 | 30 | 95 | 1.6 | 4.8 | 0.00 | 0.00 | 0.00 | 67 | 1017.9 |
| 20260830163756 | 30 | 134 | 0.0 | 4.8 | 0.00 | 0.00 | 0.00 | 67 | 1017.8 |
| 20260830163250 | 30 | 349 | 0.0 | 3.2 | 0.00 | 0.00 | 0.00 | 70 | 1017.9 |
| 20260830163006 | 29 | 232 | 0.0 | 3.2 | 0.00 | 0.00 | 0.00 | 70 | 1018.0 |
| 20260830162459 | 29 | 268 | 0.0 | 3.2 | 0.00 | 0.00 | 0.00 | 70 | 1018.0 |
| 20260830161954 | 28 | 200 | 0.0 | 3.2 | 0.00 | 0.00 | 0.00 | 71 | 1018.0 |
| 20260830161226 | 28 | 225 | 0.0 | 3.2 | 0.00 | 0.00 | 0.00 | 73 | 1018.0 |
| 20260830160720 | 28 | 191 | 0.0 | 6.4 | 0.00 | 0.00 | 0.00 | 73 | 1018.1 |
| 20260830160214 | 28 | 215 | 0.0 | 8.0 | 0.00 | 0.00 | 0.00 | 76 | 1018.3 |
| 20260830155708 | 28 | 235 | 0.0 | 8.0 | 0.00 | 0.00 | 0.00 | 75 | 1018.3 |
| 20260830155201 | 28 | 58 | 0.0 | 3.2 | 0.00 | 0.00 | 0.00 | 75 | 1018.4 |
| 20260830154656 | 27 | 199 | 0.0 | 4.8 | 0.00 | 0.00 | 0.00 | 76 | 1018.3 |
| 20260830154150 | 27 | 34 | 0.0 | 4.8 | 0.00 | 0.00 | 0.00 | 77 | 1018.3 |
| 20260830153644 | 27 | 43 | 0.0 | 4.8 | 0.00 | 0.00 | 0.00 | 78 | 1018.4 |
| 20260830153138 | 27 | 32 | 1.6 | 4.8 | 0.00 | 0.00 | 0.00 | 78 | 1018.5 |
| 20260830152859 | 27 | 169 | 1.6 | 4.8 | 0.00 | 0.00 | 0.00 | 77 | 1018.4 |
| 20260830152126 | 27 | 219 | 0.0 | 4.8 | 0.00 | 0.00 | 0.00 | 78 | 1018.4 |
| 20260830151617 | 27 | 245 | 0.0 | 4.8 | 0.00 | 0.00 | 0.00 | 79 | 1018.5 |
| 20260830151111 | 27 | 118 | 0.0 | 3.2 | 0.00 | 0.00 | 0.00 | 80 | 1018.5 |
| 20260830150605 | 26 | 25 | 0.0 | 3.2 | 0.00 | 0.00 | 0.00 | 81 | 1018.5 |
| 20260830150059 | 26 | 161 | 0.0 | 3.2 | 0.00 | 0.00 | 0.00 | 82 | 1018.4 |
| 20260830145054 | 26 | 7 | 0.0 | 3.2 | 0.00 | 0.00 | 0.00 | 83 | 1018.5 |
| 20260830144553 | 25 | 35 | 0.0 | 1.6 | 0.00 | 0.00 | 0.00 | 84 | 1018.5 |
| 20260830144053 | 25 | 162 | 0.0 | 1.6 | 0.00 | 0.00 | 0.00 | 84 | 1018.5 |
| 20260830143549 | 25 | 146 | 0.0 | 1.6 | 0.00 | 0.00 | 0.00 | 84 | 1018.5 |
| 20260830143311 | 25 | 146 | 0.0 | 3.2 | 0.00 | 0.00 | 0.00 | 85 | 1018.6 |
| 20260830142544 | 25 | 188 | 0.0 | 3.2 | 0.00 | 0.00 | 0.00 | 86 | 1018.5 |
| 20260830142045 | 25 | 8 | 0.0 | 1.6 | 0.00 | 0.00 | 0.00 | 87 | 1018.6 |
| 20260830141544 | 25 | 257 | 0.0 | 0.0 | 0.00 | 0.00 | 0.00 | 89 | 1018.6 |
| 20260830141042 | 25 | 257 | 0.0 | 0.0 | 0.00 | 0.00 | 0.00 | 90 | 1018.6 |
| 20260830140540 | 24 | 258 | 0.0 | 0.0 | 0.00 | 0.00 | 0.00 | 89 | 1018.6 |
| 20260830140041 | 24 | 149 | 0.0 | 0.0 | 0.00 | 0.00 | 0.00 | 90 | 1018.7 |
| 20260830135541 | 24 | 148 | 0.0 | 0.0 | 0.00 | 0.00 | 0.00 | 90 | 1018.7 |